Starlink 30971

operational
NORAD ID: 58443 Int'l Des: 2023-183 Owner: SPXS Country: US Constellation: starlink
LEOCIRCULAR

Über Starlink 30971

Beschreibung wird geladen...

Live-Position

3D-Globus wird geladen...

Nächste Überflüge

Höhenverlauf

Altitude vs Time

uPlot chart will show altitude changes over time

Zweizeiliger Elementsatz

1 58443U 23183G 26035.50468536 .00000102 00000-0 22604-4 0 9995
2 58443 43.0023 223.5266 0001208 269.3217 90.7487 15.02537870121721
Epoch: 4. Feb. 2026 • Age: 5 hours

Aktueller Status

Höhe 560.7 km
Geschwindigkeit 7.59 km/s
Subsatellitenpunkt 32.11°N, 36.63°W
Startdatum 28. Nov. 2023
Alter 2.1 years
Typ internet

Technische Details

Klassifizierung Payload
Masse 730.00 kg
Trockenmasse 700.00 kg
Gesamtmasse 730.00 kg
Länge 0.30 m
Durchmesser 4.10 m
Spannweite 29.00 m
Form Box + pan
Hersteller SPXS
Bus-Typ Starlink V2M
Phasenstatus In Orbit
Besitzer/Staat SPXS/US

Große Konstellationen

Loading constellations...